Weather Roundup
Issued by NWS

Home | Current Version | Previous Version | Graphics & Text | Print | Product List | Glossary Off
Versions: 1 2 3 4 5 6 7 8 9 10 11 12 13 14 15 16 17 18 19 20 21 22 23 24 25 26 27 28 29 30 31 32 33 34 35 36 37 38 39 40 41 42 43 44 45 46 47 48 49 50

000
NZUS93 KARX 291710
HRRWXR

CURRENT HOURLY OBSERVATIONS ACROSS
MUCH OF THE UPPER MISSISSIPPI VALLEY
NATIONAL WEATHER SERVICE LA CROSSE WI
1200 PM CDT WED JUL 29 2015


...SOUTHEAST MINNESOTA...


CITY           SKY/WX    TMP DP  RH WIND       PRES   REMARKS
ROCHESTER      SUNNY     75  57  53 W23G36    30.01F
ROCHESTER/MAYO FAIR      76  51  40 W26G35    29.99R
WINONA         SUNNY     79  52  38 W9G18     29.97R
AUSTIN         SUNNY     79  52  38 W18G29    30.04S
ALBERT LEA     SUNNY     77  55  47 W13G22    30.05R
DODGE CENTER   SUNNY     75  54  46 W21G29    30.02S
PRESTON        SUNNY     75  51  43 W25G36    30.03S
OWATONNA       SUNNY     77  55  47 W21G28    30.02S
FARIBAULT      SUNNY     75  55  50 W17G28    30.02R
$$

...ELSEWHERE IN MINNESOTA...


CITY           SKY/WX    TMP DP  RH WIND       PRES   REMARKS
MINNEAPOLIS    SUNNY     78  52  40 W25G39    29.94S
INTNL FALLS    LGT RAIN  62  59  90 W15G24    29.61R
DULUTH         CLOUDY    67  53  61 W21G26    29.76R
RED WING       SUNNY     81  50  34 W21G30    29.94S
REDWOOD FALLS  SUNNY     78  53  41 W23G30    30.01R
MANKATO        SUNNY     77  55  47 W21       30.03S
WORTHINGTON    SUNNY     75  55  50 W16G23    30.12S
FAIRMONT       SUNNY     77  54  44 W18       30.07F
$$

...SOUTHWEST WISCONSIN...


CITY           SKY/WX    TMP DP  RH WIND       PRES   REMARKS
LA CROSSE      SUNNY     82  51  34 W20G29    29.96F
PRAIRIE DU CHI SUNNY     81  46  29 W14G21    30.02R
BOSCOBEL       SUNNY     82  53  36 W14G22    30.01S
LONE ROCK      SUNNY     81  51  35 NW15G23   30.00S
PLATTEVILLE    SUNNY     78  55  44 W12       30.04R
FORT MC COY    SUNNY     79  47  32 W14G23    29.97F
CAMP DOUGLAS   SUNNY     79  54  41 W23G30    29.96S
VIROQUA        FAIR      77  52  41 W9G21     30.01F
WIS DELLS      SUNNY     81  45  27 W17G23    29.98S
$$

...ELSEWHERE IN WISCONSIN...


CITY           SKY/WX    TMP DP  RH WIND       PRES   REMARKS
MILWAUKEE      PTSUNNY   81  50  33 NW16G26   29.96R
MADISON        MOSUNNY   80  50  34 W12G25    29.98S
GREEN BAY      SUNNY     81  53  37 W23G32    29.87F
EAU CLAIRE     SUNNY     79  52  38 W16G37    29.90F
BLACK RVR FLS  FAIR      79  48  33 W16G24    29.94F
MEDFORD        SUNNY     74  52  45 W18G38    29.88F
WAUSAU         SUNNY     78  50  37 W24G35    29.87F
WIS RAPIDS     SUNNY     79  48  33 W21G31    29.94S
MARSHFIELD     SUNNY     78  47  33 W24G35    29.91F
RICE LAKE      SUNNY     74  54  50 W21G29    29.90S
$$

...NORTHEAST IOWA...


CITY           SKY/WX    TMP DP  RH WIND       PRES   REMARKS
DECORAH        SUNNY     77  52  41 NW14G24   30.03S
MASON CITY     SUNNY     80  56  43 W20G28    30.08S
CHARLES CITY   SUNNY     77  55  47 W17G31    30.06S
OELWEIN        SUNNY     77  55  47 W13G26    30.07S
$$

...ELSEWHERE IN IOWA...


CITY           SKY/WX    TMP DP  RH WIND       PRES   REMARKS
DES MOINES     PTSUNNY   83  49  30 NW18G24   30.11S
IOWA CITY      SUNNY     81  53  37 NW15G21   30.09R
FORT DODGE     SUNNY     79  57  47 W12G18    30.13S
$$

...NORTHERN ILLINOIS...


CITY           SKY/WX    TMP DP  RH WIND       PRES   REMARKS
CHICAGO-OHARE  MOSUNNY   85  58  39 NW12      29.98S
CHICAGO-MIDWAY MOSUNNY   85  67  54 NW17      29.98R
MOLINE         SUNNY     84  57  39 NW12      30.06R
ROCKFORD       MOSUNNY   82  51  34 NW14G22   30.04R
PEORIA         MOSUNNY   86  67  52 VRB6G16   30.05R
$$

NOTE: "FAIR" INDICATES FEW OR NO CLOUDS BELOW 12,000 FEET WITH NO
SIGNIFICANT WEATHER AND/OR OBSTRUCTIONS TO VISIBILITY. WIND
SPEEDS ARE IN MILES-PER-HOUR.



USA.gov is the U.S. government's official web portal to all federal, state and local government web resources and services.